Theta_e
326 327 327 327 325 325 329 328 324 326 330 329 325 326 325 322 330 334 332 337 344 346 356 358 353 357 359 358 364 366 360 359 361 363 367 371 370 361 353 352 352 351 351 351 350 350 350 348 346 346 348 351 353 353 354 355 355 356 357 356 355 355 355
327 329 328 329 327 328 330 325 325 334 335 333 332 331 327 325 328 327 325 333 338 339 352 364 354 356 361 358 359 360 359 360 362 364 367 369 368 363 357 355 353 351 350 351 351 350 351 349 347 346 349 351 353 353 354 355 356 357 358 358 357 356 356
327 329 327 328 330 330 331 327 331 335 330 332 336 330 326 327 330 328 324 332 341 340 347 357 353 357 361 357 357 357 357 359 359 362 365 363 360 359 361 361 358 354 350 350 352 350 351 350 347 348 349 352 354 354 354 356 356 357 358 359 358 357 357
325 327 326 324 327 331 331 330 332 334 330 332 334 330 328 329 331 332 328 333 344 348 350 356 359 361 361 359 361 362 358 358 358 358 360 361 361 363 366 366 364 358 350 349 351 350 351 351 348 349 350 351 355 356 355 356 357 358 358 359 359 358 358
321 322 325 325 328 331 330 329 328 328 329 333 334 332 332 330 330 332 330 332 344 353 355 360 360 358 361 362 363 363 359 356 359 360 360 362 366 367 365 364 364 358 351 348 351 350 351 352 350 350 351 352 355 356 356 357 358 358 358 358 358 358 357
315 319 326 328 331 331 330 330 329 327 332 340 342 340 340 339 335 331 328 331 344 355 354 358 359 358 361 361 363 366 361 357 360 365 363 362 366 366 361 359 359 356 352 349 349 351 351 352 352 351 351 353 355 356 356 357 358 358 358 358 358 358 358
318 322 327 327 329 330 329 332 333 331 335 342 342 340 343 346 341 334 328 331 346 357 352 354 358 359 360 358 359 363 360 358 361 362 360 360 365 365 359 356 355 353 353 350 348 351 351 351 352 352 350 351 353 355 356 357 357 357 357 357 357 357 357
326 324 324 328 330 330 329 332 336 333 332 338 342 341 340 338 335 334 333 336 349 358 355 355 354 355 358 356 355 357 358 360 361 360 360 362 366 364 358 356 354 352 353 353 351 350 351 351 352 352 351 350 351 353 355 356 357 357 357 356 355 355 356
325 324 324 326 329 329 332 336 338 336 334 335 338 340 340 336 331 332 334 338 349 356 356 359 358 355 356 357 356 356 358 360 360 361 363 363 367 366 359 356 354 354 357 356 352 350 350 350 352 352 352 351 351 352 354 355 356 356 357 356 355 354 354
322 322 322 323 326 327 329 333 335 335 334 335 337 339 341 339 334 331 334 339 347 350 352 358 361 357 356 360 360 357 357 357 358 362 363 362 365 366 363 360 357 359 361 356 351 350 350 350 351 352 351 351 352 352 353 355 355 355 355 355 355 354 353
322 322 324 327 327 322 320 324 329 329 330 337 343 340 338 340 337 333 339 345 345 348 356 363 362 356 356 360 359 357 359 357 355 356 358 359 362 366 368 365 362 362 363 359 354 351 352 351 351 352 351 351 352 352 353 354 354 355 354 354 354 353 352
323 323 323 324 325 321 318 321 324 326 332 339 341 336 337 345 340 335 346 353 345 348 359 361 356 355 358 360 358 357 360 358 352 350 350 351 355 362 366 366 363 360 362 364 359 351 350 351 349 350 352 351 351 353 354 355 354 354 353 353 355 354 352
321 322 322 322 324 322 321 323 325 326 329 333 335 335 339 345 338 338 351 355 347 349 355 353 351 356 359 356 354 354 353 351 348 346 347 347 348 353 358 362 363 360 361 368 362 352 351 350 349 350 350 351 353 354 355 354 354 354 353 353 355 354 353
321 321 323 322 322 320 320 323 327 327 326 328 330 331 337 342 339 342 351 352 350 354 355 353 354 355 353 350 351 351 350 349 347 348 352 352 348 347 349 354 358 358 361 365 358 351 350 350 349 350 350 350 351 351 352 354 354 355 353 353 355 355 354
319 321 322 321 320 320 317 317 323 325 325 326 326 326 330 334 337 342 343 344 351 358 357 356 355 353 351 349 349 350 350 349 349 350 354 353 348 348 349 351 352 353 355 357 353 350 349 347 348 350 350 351 351 351 352 350 351 354 354 355 356 355 354
318 320 320 320 321 319 316 318 324 325 324 324 324 330 334 334 336 340 336 339 353 360 356 355 355 353 351 349 351 353 352 348 347 349 351 349 348 351 351 351 351 351 351 352 351 350 348 346 347 350 351 352 350 351 353 352 353 353 352 353 354 356 358
319 320 320 321 322 320 319 323 328 329 329 330 327 331 339 340 339 336 335 345 360 361 355 355 354 353 353 353 354 354 352 348 346 347 350 349 350 352 351 350 351 351 351 349 348 349 348 347 347 349 351 352 352 351 352 353 354 353 353 353 351 350 354
319 321 323 322 320 320 325 334 336 331 331 334 332 331 335 340 343 342 344 352 359 356 355 356 354 352 352 351 350 349 349 350 348 349 351 350 349 349 349 350 350 349 349 349 349 350 349 348 348 349 350 351 352 352 353 354 354 353 353 355 353 349 347
321 323 324 321 319 324 332 337 337 333 331 331 332 333 336 342 352 358 357 354 354 353 353 353 351 350 350 349 348 348 348 348 349 350 350 349 348 348 348 349 350 348 347 346 347 349 349 348 350 351 350 349 350 351 353 354 353 353 352 352 352 349 346
323 321 320 321 322 328 335 336 333 334 333 331 332 336 342 345 350 356 356 353 353 352 350 349 349 348 348 348 349 348 346 347 347 348 348 348 347 347 347 347 348 347 345 344 344 346 348 348 350 351 350 349 349 350 353 354 352 353 353 352 351 350 350
322 318 319 323 323 325 334 338 334 333 333 333 336 340 343 346 346 350 353 353 352 351 348 348 348 347 348 351 350 347 345 344 344 345 346 346 345 345 345 345 346 345 344 345 344 344 345 346 349 351 350 349 349 351 352 354 353 353 353 353 350 350 352
325 320 319 322 320 321 331 337 333 331 330 330 336 342 344 346 344 348 352 352 351 350 349 348 347 348 352 356 353 348 345 344 343 344 344 344 343 343 342 343 344 344 344 345 344 343 343 344 348 351 351 351 352 353 353 354 354 352 352 352 350 349 351
326 321 319 321 318 323 337 339 331 329 331 333 337 340 342 347 345 346 351 352 351 351 350 348 348 352 356 357 352 347 346 346 345 344 344 343 342 341 341 341 342 342 342 343 342 342 342 342 345 349 350 351 351 350 350 351 350 349 349 350 349 349 350
322 320 319 319 318 327 342 340 332 331 333 338 337 333 339 348 343 343 351 354 353 352 349 347 350 353 355 355 350 346 345 345 343 343 343 342 341 340 340 340 340 340 340 340 339 340 340 340 342 344 346 347 346 345 345 346 346 346 346 347 348 348 348
322 322 320 317 321 337 347 338 335 336 334 336 335 335 347 354 344 342 350 353 352 352 349 349 351 351 349 349 348 345 344 343 342 342 341 340 339 339 339 340 340 340 339 339 338 337 338 339 340 341 343 343 342 342 343 343 344 345 344 345 346 346 345
322 324 322 318 326 343 346 337 340 343 338 339 342 346 352 352 346 347 350 349 351 351 350 350 350 347 344 345 345 344 344 344 343 341 340 339 339 339 339 339 339 339 338 337 336 336 336 337 338 339 340 341 341 342 342 343 344 345 345 345 345 345 345
324 323 322 321 329 341 340 339 345 347 344 347 351 347 345 345 347 349 349 349 350 349 348 348 346 344 343 343 343 343 343 344 343 340 339 339 338 338 339 338 336 335 334 333 333 334 335 336 336 338 339 340 341 341 342 343 343 344 345 344 344 344 344
326 323 326 332 341 347 343 342 347 348 350 353 350 343 342 346 346 347 349 351 349 347 347 346 344 343 343 342 343 343 341 341 341 339 338 339 338 338 337 335 333 332 332 332 332 332 333 333 334 335 335 336 338 339 340 341 341 342 342 342 342 342 341
330 330 337 345 348 345 340 341 346 348 346 346 344 341 342 346 346 348 352 351 347 347 347 344 342 343 342 342 342 341 341 341 340 338 338 338 337 336 335 333 332 331 331 331 331 331 332 332 332 332 333 333 335 336 338 339 340 340 340 340 339 339 339
332 333 341 345 342 338 337 339 345 345 340 338 342 342 343 344 345 349 353 350 346 347 347 345 344 343 341 341 341 340 341 340 338 336 336 335 334 333 332 331 331 330 330 330 330 330 331 330 330 330 331 331 331 332 334 337 338 338 338 338 337 337 336
330 331 339 343 341 339 339 338 342 346 344 344 347 346 344 344 343 347 350 347 345 347 347 345 344 342 340 341 341 341 341 339 337 335 333 331 330 329 328 328 328 328 328 328 328 328 329 329 329 328 328 328 328 327 328 330 331 332 333 333 333 334 333
334 335 339 342 342 343 344 341 342 345 345 346 348 346 344 344 345 346 347 344 344 346 345 343 341 340 340 341 341 342 340 337 334 333 330 327 327 325 325 325 325 325 326 325 325 325 325 325 325 325 325 325 325 325 325 325 325 326 326 327 327 328 328
335 338 341 342 341 343 343 343 344 346 344 344 344 343 344 346 346 346 345 343 343 343 341 340 339 339 339 340 339 339 337 335 333 332 329 328 328 326 325 324 324 325 326 326 327 327 325 322 321 322 322 321 321 322 322 322 322 322 322 323 323 323 323
337 345 350 346 342 342 343 341 343 344 343 343 344 344 346 348 348 347 346 344 343 340 337 337 339 339 339 338 335 336 335 333 332 332 331 331 331 329 328 328 327 327 328 328 329 330 329 326 325 324 322 320 320 321 322 322 324 324 324 324 324 324 323
341 345 347 345 343 345 345 341 341 341 342 345 347 348 348 347 347 347 347 345 344 341 337 335 336 337 337 334 333 334 333 332 331 332 332 332 332 331 331 331 331 331 330 329 330 331 330 329 328 328 328 326 325 325 325 324 325 326 327 328 327 325 323
341 338 340 342 344 345 343 339 339 340 341 343 345 345 345 345 344 345 345 344 342 340 339 336 335 335 334 332 332 333 332 331 331 331 331 332 333 332 332 331 330 330 331 331 332 331 331 330 330 330 331 330 329 327 326 325 325 325 326 327 328 327 325
340 340 341 341 341 341 340 338 339 339 339 340 341 341 342 342 341 341 343 342 338 337 337 336 334 333 333 333 333 333 332 331 331 331 331 331 331 331 330 329 328 329 330 330 331 331 330 330 330 329 329 330 330 329 328 327 327 327 327 328 328 329 329
Wind_Speed
7 3 3 3 3 1 2 3 3 1 1 2 2 2 4 3 2 1 2 1 1 2 1 3 6 7 6 5 5 5 6 6 7 6 5 4 3 4 4 5 10 13 16 18 19 22 20 19 28 30 29 33 34 33 32 29 29 28 26 28 28 27 26
7 7 5 1 3 4 3 1 2 3 3 5 3 1 4 3 1 1 1 2 0 1 1 3 4 5 3 4 3 4 6 7 6 5 5 5 5 5 5 3 6 11 17 19 19 22 22 20 25 29 30 34 34 34 34 31 30 28 26 27 27 27 27
6 5 6 3 5 6 5 2 1 1 3 2 1 1 1 1 1 2 3 4 2 2 2 2 3 3 2 3 3 1 4 6 6 5 5 6 7 6 3 3 2 5 13 20 20 21 23 23 23 25 30 34 33 34 35 33 31 29 27 26 26 26 26
3 1 3 3 2 3 5 3 1 2 3 1 1 1 1 1 1 1 2 2 1 2 1 2 2 2 3 3 3 2 0 2 4 6 7 7 7 6 2 1 3 4 8 20 24 22 23 25 24 22 28 32 32 33 33 32 32 30 27 25 25 25 26
2 1 2 3 5 4 4 4 3 2 1 2 2 2 1 2 1 1 1 1 2 2 1 3 3 1 3 3 2 1 2 2 1 2 4 6 7 7 5 3 1 4 8 15 25 24 23 24 23 22 27 31 30 32 33 31 30 29 27 26 26 26 26
3 2 2 2 8 7 5 4 2 1 1 3 2 2 2 2 1 2 3 3 2 1 1 3 4 3 1 3 3 3 4 3 2 3 3 3 6 8 8 7 5 3 7 8 17 24 24 22 21 21 25 29 30 30 31 31 30 30 28 27 27 27 26
3 4 5 4 9 7 5 5 2 1 3 4 4 2 2 1 1 3 5 3 3 3 3 4 7 6 3 1 3 3 3 3 4 3 4 4 3 7 9 8 8 7 6 8 8 18 25 23 22 22 23 25 29 30 30 29 29 30 30 28 28 28 27
4 6 4 4 8 5 4 4 3 3 3 3 4 4 3 2 2 3 1 1 4 4 3 5 5 6 6 5 4 4 4 4 4 2 3 3 3 5 7 7 8 9 6 5 7 10 21 24 22 23 23 23 26 29 30 31 29 29 30 28 27 29 28
5 5 3 3 6 4 2 2 3 2 1 2 4 3 3 2 1 1 2 2 4 3 1 2 1 2 5 5 5 6 6 6 5 0 2 1 3 4 6 7 8 8 6 2 4 6 12 22 23 23 23 23 25 28 29 31 31 30 31 29 27 29 30
3 3 1 2 1 2 2 3 5 6 5 5 5 4 3 1 1 1 2 4 4 2 2 2 4 2 2 5 4 4 5 6 7 4 1 2 4 4 5 7 7 5 4 4 2 5 5 13 22 25 26 24 23 26 28 30 31 30 31 31 28 30 31
4 5 5 6 5 2 2 5 7 5 4 5 6 4 2 3 2 1 3 5 3 3 4 6 4 2 2 5 3 2 2 3 5 6 5 5 4 5 5 4 4 5 4 3 3 3 5 4 10 15 25 30 25 23 25 28 31 31 31 28 26 30 33
7 8 9 11 10 8 7 6 4 2 4 8 8 3 4 5 4 2 4 6 4 4 6 6 4 3 5 4 1 1 2 2 3 5 7 9 8 6 4 2 3 5 4 3 4 4 4 2 5 8 10 21 26 26 27 28 28 30 31 28 25 29 32
6 7 10 11 10 8 6 2 4 3 2 7 8 6 7 8 5 4 6 8 5 4 6 7 4 3 2 1 3 3 3 5 5 6 8 9 11 10 8 6 6 5 3 3 5 6 6 4 5 3 6 5 6 10 18 26 30 30 30 27 25 29 32
6 8 10 12 9 7 5 3 6 6 5 6 6 6 7 9 8 7 8 9 5 1 2 3 2 4 3 3 4 4 4 5 5 5 5 4 6 8 9 9 8 5 0 3 6 9 9 7 4 4 2 3 5 5 4 4 14 24 28 28 26 27 28
4 7 9 9 8 8 10 9 6 6 5 5 5 5 4 4 4 4 5 7 3 1 2 6 6 4 4 4 4 3 2 2 2 2 2 2 3 4 6 6 7 8 6 2 3 6 9 8 5 5 6 5 5 7 4 11 10 2 9 18 25 29 29
4 5 7 9 8 8 9 6 2 3 3 1 2 1 2 2 2 3 2 2 2 2 3 7 5 3 4 4 3 1 1 1 1 2 2 3 4 4 5 5 4 6 7 5 3 1 5 7 6 7 11 10 9 14 13 8 7 5 3 1 4 13 20
3 5 8 8 7 6 5 3 3 5 4 4 5 5 5 4 3 3 1 3 4 4 6 6 4 4 3 1 2 2 1 2 1 1 0 1 3 4 5 5 4 4 4 4 4 4 4 8 9 10 14 16 15 15 15 13 14 15 12 6 3 9 3
3 7 7 7 6 4 4 4 2 4 5 5 4 5 6 5 4 4 3 2 3 5 6 6 5 3 1 2 2 1 2 1 3 3 2 1 2 3 3 3 3 4 3 3 4 6 10 15 15 14 16 17 16 14 14 14 13 14 17 19 13 4 8
2 5 6 5 2 4 5 5 4 5 6 5 5 6 9 8 8 9 9 8 8 7 6 5 5 5 3 1 1 2 1 1 2 2 2 3 2 3 4 4 3 4 5 4 5 6 10 14 14 15 18 20 20 17 16 17 18 18 18 17 14 11 5
1 3 2 0 3 4 3 3 2 4 6 5 5 6 9 9 8 9 9 8 8 7 5 4 4 5 4 1 1 1 1 1 2 3 2 3 3 3 4 4 4 6 7 6 7 10 12 12 14 18 19 21 24 22 19 19 18 19 19 13 12 13 14
2 1 2 3 4 6 4 2 1 3 6 6 5 5 5 7 6 7 8 7 7 6 5 4 3 4 3 0 2 2 1 0 1 3 3 4 4 5 7 7 6 8 10 8 8 10 15 19 18 22 22 22 25 23 19 18 17 17 16 13 15 15 15
2 2 2 4 4 3 2 1 1 5 8 8 8 6 2 5 6 7 7 6 6 4 4 3 2 2 2 1 1 2 2 1 1 2 3 6 7 9 11 12 11 11 10 10 10 8 14 21 16 23 23 23 27 24 18 18 18 17 13 12 15 16 15
2 3 0 2 2 2 2 0 3 7 9 8 7 6 1 4 3 6 7 6 5 5 4 3 2 1 1 0 0 0 1 2 3 3 3 5 8 10 11 11 11 11 10 10 10 7 12 17 2 21 24 24 28 24 19 18 19 20 19 16 17 18 15
2 3 2 2 1 2 3 4 6 7 7 7 7 4 2 5 0 6 6 5 5 4 4 3 1 1 1 1 2 2 2 3 4 4 4 5 7 9 10 9 8 8 9 11 13 13 13 16 12 20 26 27 28 25 21 20 18 19 21 19 18 16 12
1 2 3 2 1 1 3 6 7 5 5 6 5 3 5 5 2 5 5 5 5 5 5 3 1 2 2 3 4 4 3 3 3 4 7 7 7 7 7 6 6 8 11 13 15 17 16 14 11 15 24 25 24 23 24 22 19 17 17 16 14 11 11
1 2 3 2 0 2 3 3 7 7 4 3 2 4 5 4 4 5 5 5 5 5 5 4 3 3 3 3 3 3 3 5 5 5 8 7 6 7 8 9 9 11 15 18 18 18 16 14 12 16 23 23 20 21 23 21 19 19 19 19 16 13 14
1 2 3 2 1 2 1 3 5 5 2 4 4 4 4 3 5 6 4 4 4 5 5 5 5 5 4 3 4 4 3 4 5 5 8 8 6 7 10 12 15 18 19 21 22 20 17 14 12 13 18 22 22 23 23 21 23 25 25 25 24 21 20
1 1 1 2 4 4 2 3 2 1 3 5 4 4 3 3 4 5 4 4 3 4 6 6 6 6 5 4 4 3 3 4 5 5 7 8 8 9 12 14 19 22 21 20 20 19 16 16 16 15 16 20 23 25 24 25 27 28 28 28 28 26 25
2 2 3 4 6 5 2 3 5 4 3 3 2 3 4 4 3 3 4 5 3 3 7 7 6 5 5 4 3 3 3 3 5 6 7 8 10 11 14 17 21 23 21 18 17 17 17 17 19 20 21 22 24 25 25 27 28 28 29 29 28 27 26
1 1 3 4 3 2 2 5 6 4 3 4 5 6 4 5 4 3 5 5 4 5 7 7 6 5 5 4 4 4 3 4 5 7 9 10 12 13 14 17 21 24 23 19 16 15 17 19 21 22 23 24 24 24 25 27 28 28 29 29 28 27 28
0 1 2 5 5 4 5 7 6 6 6 6 5 4 3 5 6 4 4 5 5 5 5 6 7 6 6 6 5 4 5 5 6 8 10 11 13 15 16 18 21 23 24 22 17 14 15 18 20 22 25 25 25 26 26 27 28 29 29 28 28 28 28
3 3 3 4 7 7 8 7 6 6 6 5 4 4 4 6 7 5 3 5 6 5 4 6 8 7 6 6 6 5 5 6 7 10 12 13 14 17 20 22 23 23 25 25 21 17 19 21 21 22 25 26 25 26 26 25 26 28 27 26 27 26 25
1 1 1 3 7 8 7 7 6 5 4 4 3 3 4 6 7 5 5 4 5 6 6 6 7 7 6 6 6 6 6 6 9 12 14 14 15 17 19 22 23 23 23 22 20 18 20 22 21 21 24 25 25 25 25 23 24 25 25 25 26 25 24
1 1 3 1 4 4 4 6 6 5 5 5 5 4 5 6 6 5 6 5 5 8 8 8 8 8 6 6 7 6 6 9 12 15 15 14 14 15 16 17 19 19 19 20 20 18 18 18 16 15 17 19 20 20 20 19 20 22 23 24 25 24 23
2 1 2 2 5 4 4 6 7 6 6 6 6 6 5 5 4 3 5 6 6 7 8 9 10 8 7 9 10 7 7 12 16 16 15 14 14 14 14 14 16 18 19 20 19 17 17 19 17 15 15 17 17 17 18 20 22 24 25 26 26 24 24
3 2 3 6 6 5 5 7 8 6 6 5 6 5 5 4 3 1 2 5 6 6 7 9 12 12 12 12 12 9 10 13 17 17 16 15 14 13 13 15 17 18 17 18 18 19 22 23 21 19 19 18 19 19 20 22 24 25 26 27 25 24 25
5 3 5 7 8 7 8 7 6 6 6 6 6 5 5 4 3 1 2 5 4 3 6 9 12 16 16 15 13 13 13 14 17 17 17 16 15 16 16 17 18 18 19 21 23 24 25 24 23 22 22 20 20 21 20 21 23 24 23 23 22 21 21
Wind_Direction
150 112 73 59 70 134 326 12 42 328 316 67 81 317 336 19 85 192 191 164 320 92 48 357 60 62 35 55 107 152 191 191 170 184 195 194 258 264 244 194 174 172 176 182 185 189 197 183 172 177 173 170 173 176 181 186 188 190 191 192 193 194 194
123 105 114 34 42 99 99 25 302 302 14 55 72 41 350 11 74 275 307 101 12 312 297 328 51 67 54 56 76 150 167 167 169 181 197 213 230 247 274 264 193 176 171 180 186 188 199 193 176 177 176 173 175 178 181 185 188 191 193 194 195 196 196
133 135 140 115 45 69 96 135 231 65 62 29 4 93 22 4 70 303 347 65 60 328 308 337 21 44 84 89 64 93 153 168 177 177 189 213 225 235 272 337 289 209 173 173 181 185 192 196 186 177 175 175 175 178 181 184 189 193 194 194 196 197 198
152 157 87 114 104 75 85 73 38 95 122 164 346 50 126 64 21 284 338 52 67 268 320 355 325 336 39 73 76 26 353 190 186 181 184 195 209 221 229 52 354 293 199 174 176 184 186 190 193 182 173 175 176 177 181 184 187 191 195 197 197 198 199
328 62 41 134 152 139 99 68 49 61 80 67 29 16 70 53 343 276 298 308 259 238 355 343 322 356 42 73 105 329 278 258 273 227 191 184 195 210 222 207 174 302 253 188 174 182 187 185 191 185 173 175 177 178 181 183 185 189 193 197 198 199 199
1 38 335 100 112 109 107 105 111 164 134 83 66 351 3 58 43 294 298 284 274 306 351 323 330 355 84 163 179 217 226 221 247 262 262 229 199 204 213 215 202 236 270 226 177 177 183 185 189 185 175 173 175 178 181 182 184 188 193 197 198 198 198
348 339 326 77 97 97 109 117 98 90 110 105 114 196 261 87 137 277 293 287 269 296 350 357 349 347 339 273 229 239 236 236 241 239 258 278 234 209 207 210 214 215 255 277 223 182 179 184 191 188 182 178 176 178 181 182 185 188 193 198 199 198 197
333 319 305 90 90 83 95 91 57 63 97 118 139 155 155 133 200 240 273 298 272 282 0 28 1 335 329 331 325 318 309 285 276 215 197 260 270 231 219 213 213 210 217 287 293 213 184 181 186 189 189 186 180 180 182 185 188 191 193 199 200 197 197
338 326 314 30 51 63 104 100 96 116 122 102 111 113 101 108 204 138 120 248 256 259 46 97 168 315 329 327 331 333 321 307 306 280 148 249 281 250 229 222 216 210 192 142 343 285 203 184 183 187 191 191 185 184 186 187 191 193 194 199 202 198 197
305 306 279 290 297 158 185 180 164 173 182 156 133 111 92 118 201 140 157 219 245 276 327 248 204 131 350 290 301 345 331 318 323 337 356 305 295 280 242 221 211 198 169 132 81 327 274 200 188 184 188 194 193 189 188 188 191 193 193 199 203 199 196
244 259 262 274 269 238 237 208 182 175 177 145 114 97 135 165 171 230 200 193 225 255 250 254 249 128 194 250 270 16 336 316 337 350 345 324 306 293 274 238 209 184 157 130 115 25 347 245 214 200 191 192 196 197 194 191 191 191 192 199 203 197 195
241 253 268 283 278 261 251 226 183 86 94 121 122 152 191 147 110 286 224 186 196 227 221 235 242 200 211 226 231 318 302 321 350 21 8 337 320 307 299 291 259 225 190 140 107 68 47 174 250 282 226 198 197 198 194 190 190 191 193 197 198 192 191
269 281 287 291 284 269 266 213 127 94 117 150 168 194 174 147 149 204 199 188 201 215 208 215 212 179 190 17 14 337 354 3 353 29 38 354 333 330 323 309 287 255 202 121 98 82 68 121 183 280 322 284 239 210 193 186 185 188 191 193 192 188 188
309 305 297 301 311 314 306 259 187 185 189 187 211 217 178 171 185 189 183 182 187 218 176 164 92 78 83 61 32 2 19 27 359 12 44 16 344 339 326 311 306 302 285 96 97 99 86 82 129 160 172 304 325 342 329 222 188 186 190 192 190 187 189
291 281 277 283 287 279 275 270 238 198 180 183 219 229 200 186 190 185 182 171 156 355 58 87 75 79 101 91 71 31 11 41 3 340 27 12 340 344 340 327 324 320 308 305 102 116 119 113 115 147 163 184 205 203 281 333 336 264 194 193 191 190 192
249 268 282 284 284 276 270 281 18 79 107 99 294 253 129 109 86 73 76 119 164 201 124 99 94 101 97 92 105 159 216 114 7 335 23 0 333 357 5 345 322 301 296 305 333 85 133 144 152 165 163 162 184 198 206 235 251 251 307 351 200 200 192
281 288 299 308 337 342 295 277 50 51 51 43 19 23 58 73 68 74 133 202 196 164 127 109 97 82 78 120 188 235 242 138 113 283 139 6 338 9 20 0 337 303 304 319 299 272 232 216 207 190 174 170 178 191 200 208 203 199 199 182 10 345 3
299 297 324 349 5 346 271 235 115 65 54 56 49 30 35 46 49 56 82 116 96 85 96 110 115 117 183 235 198 206 250 212 212 222 181 124 19 17 19 13 349 307 318 337 288 249 237 233 223 202 182 176 178 182 186 192 188 186 196 195 195 289 356
291 313 1 17 327 260 232 216 174 126 91 67 57 40 37 51 69 71 72 82 90 91 102 121 136 156 180 206 132 150 179 257 257 235 119 97 65 43 17 2 347 304 303 316 309 270 240 232 222 207 191 180 178 180 182 183 178 180 196 200 189 195 236
28 341 11 239 269 285 256 227 201 131 102 83 75 54 39 45 75 91 91 98 107 111 122 133 137 145 148 99 33 74 80 30 317 334 44 54 42 52 27 0 346 322 308 297 297 294 279 260 228 208 196 179 171 173 178 181 177 179 189 182 155 169 204
144 159 266 261 294 319 324 329 354 98 98 98 109 94 36 15 46 90 102 102 101 106 125 140 145 149 147 57 346 340 316 209 321 341 9 28 35 38 21 6 341 312 306 306 310 320 320 301 254 209 187 170 161 159 163 168 168 173 182 168 147 158 193
118 87 339 305 309 305 287 258 101 98 98 100 104 103 47 344 29 78 100 108 113 128 144 144 164 177 171 224 268 275 294 296 329 347 7 26 37 36 26 15 354 329 319 321 323 336 335 313 255 191 167 149 142 138 141 149 149 147 143 137 141 157 186
88 88 81 291 291 270 258 164 71 78 88 91 84 83 23 305 22 80 99 115 138 160 162 157 182 196 154 164 319 48 347 0 20 19 22 38 44 41 35 27 8 353 352 350 346 352 344 338 55 141 137 126 121 119 123 130 126 117 109 114 138 157 176
109 129 203 253 222 261 315 19 47 63 76 74 69 81 237 263 141 107 120 149 164 151 137 143 137 100 118 134 132 130 110 66 46 43 51 52 51 45 35 29 17 7 15 15 11 15 5 359 45 108 119 115 110 108 108 105 100 102 107 115 131 141 152
132 158 226 245 156 265 317 25 37 32 52 62 74 152 221 236 183 132 140 158 155 131 133 151 116 93 124 144 142 143 136 120 97 84 83 71 65 67 56 48 44 35 42 46 32 23 21 16 35 88 104 103 102 105 105 98 94 102 113 121 128 133 143
245 201 239 253 60 273 274 41 27 13 43 97 176 203 214 208 147 130 136 142 135 128 135 140 120 106 93 87 112 139 151 145 134 116 109 99 83 78 69 64 68 57 49 52 46 33 34 42 53 83 98 98 98 101 102 105 113 123 130 136 141 144 144
208 223 257 262 231 271 290 65 29 11 79 181 206 197 199 176 126 124 123 112 119 133 130 118 112 113 115 125 142 148 131 114 109 108 111 108 89 74 65 58 61 63 57 54 51 43 41 53 65 83 96 100 99 96 95 104 118 125 129 132 131 129 127
149 179 249 214 210 247 297 97 122 176 181 190 185 150 138 116 113 129 124 103 121 146 131 123 126 130 143 159 149 127 97 85 86 90 98 101 93 78 74 71 71 71 67 63 62 57 53 64 74 77 80 86 89 89 92 101 108 112 114 116 115 115 114
176 189 206 204 206 226 237 115 125 145 160 160 121 100 120 135 148 152 131 129 159 150 126 132 147 146 143 135 107 93 91 89 96 99 98 101 99 86 80 82 82 79 72 65 63 63 62 70 78 80 80 81 81 84 93 102 104 105 107 108 108 108 108
293 267 198 170 155 170 119 97 99 103 92 74 55 49 86 140 161 159 139 143 156 139 133 144 149 138 130 121 104 104 110 102 104 108 102 94 92 88 83 83 85 84 78 66 56 59 65 68 73 77 80 82 82 88 96 101 103 106 108 108 109 109 108
68 348 153 134 117 102 89 80 77 74 70 74 71 56 79 133 149 163 154 141 135 136 145 145 135 131 138 138 133 131 129 123 111 98 89 84 85 87 87 88 90 90 86 76 62 54 61 67 72 77 81 83 86 91 94 98 102 105 107 107 108 107 105
182 210 205 134 107 95 84 78 77 76 71 75 78 63 80 120 141 163 158 131 128 137 143 134 131 138 146 145 144 141 131 125 113 100 93 91 93 94 94 95 95 94 94 93 85 73 71 74 78 85 88 90 92 93 93 95 99 100 100 101 102 101 101
158 254 325 56 77 80 78 81 87 88 83 81 71 56 81 107 125 146 152 138 135 141 143 137 135 142 146 139 130 122 118 114 108 108 110 110 109 106 104 104 104 101 100 102 103 102 99 94 91 93 95 94 94 97 99 102 103 101 100 99 98 98 99
25 316 290 30 93 96 88 86 85 76 72 75 65 49 68 94 109 130 146 143 130 136 147 148 139 137 135 122 110 100 102 109 111 115 121 121 120 121 122 121 120 115 111 110 112 115 115 110 109 112 112 107 100 97 102 108 108 106 105 102 99 99 100
132 223 239 131 102 108 101 85 74 50 38 60 77 68 67 86 96 118 148 146 133 134 145 145 138 132 122 116 113 103 100 110 115 120 124 121 122 127 128 123 120 118 119 120 119 114 107 103 104 108 114 118 114 107 108 110 108 105 104 102 99 100 103
100 84 99 100 100 106 96 81 74 57 35 50 81 76 61 74 78 69 145 142 136 142 145 138 133 129 122 119 118 112 110 116 119 121 122 121 120 120 114 108 106 105 103 104 104 100 96 94 91 87 89 99 110 113 112 110 107 105 105 105 106 108 110
122 129 116 107 105 107 100 85 78 73 58 58 69 56 41 60 73 37 71 80 76 112 137 132 129 127 124 122 121 118 118 123 124 123 121 119 116 111 108 107 106 100 94 94 95 95 94 92 90 88 86 90 101 108 107 105 104 103 102 103 107 110 112